Terminal Aerodrome Forecast
Issued by NWS

Home | Current Version | Previous Version | Text Only | Print | Product List | Glossary On
Versions: 1 2 3 4 5 6 7 8 9 10 11 12 13 14 15
000
FTUS45 KTFX 251745
TAFLWT
TAF
KLWT 251745Z 2518/2618 30010KT P6SM SCT030 OVC040
     FM260200 03007KT P6SM SCT080 BKN120
     FM261200 VRB06KT P6SM VCSH SCT040 BKN060=

USA.gov is the U.S. government's official web portal to all federal, state and local government web resources and services.